TimeIST,TemperatureF,Dew PointF,Humidity,Sea Level PressureIn,VisibilityMPH,Wind Direction,Wind SpeedMPH,Gust SpeedMPH,PrecipitationIn,Events,Conditions,WindDirDegrees,DateUTC
12:10 AM,84.2,66.2,55,29.74,3.7,West,16.1,-,N/A,,Scattered Clouds,280,2013-08-20 18:40:00
12:40 AM,84.2,66.2,55,29.74,3.7,West,11.5,-,N/A,,Scattered Clouds,280,2013-08-20 19:10:00
1:10 AM,84.2,66.2,55,29.74,3.7,West,13.8,-,N/A,,Scattered Clouds,280,2013-08-20 19:40:00
1:40 AM,84.2,66.2,55,29.74,3.7,West,13.8,-,N/A,,Scattered Clouds,280,2013-08-20 20:10:00
2:10 AM,84.2,66.2,55,29.71,3.7,West,16.1,-,N/A,,Scattered Clouds,280,2013-08-20 20:40:00
2:30 AM,83,65,45,29.72,2,West,9.2,,,,Haze,270,2013-08-20 21:00:00
2:40 AM,82.4,68.0,62,29.71,3.7,West,16.1,-,N/A,,Scattered Clouds,280,2013-08-20 21:10:00
3:10 AM,82.4,66.2,58,29.71,3.7,West,16.1,-,N/A,,Scattered Clouds,280,2013-08-20 21:40:00
3:40 AM,82.4,66.2,58,29.71,3.7,West,9.2,-,N/A,,Scattered Clouds,280,2013-08-20 22:10:00
4:10 AM,82.4,66.2,58,29.71,3.7,West,13.8,-,N/A,,Scattered Clouds,270,2013-08-20 22:40:00
4:40 AM,82.4,66.2,58,29.71,3.7,West,13.8,-,N/A,,Scattered Clouds,260,2013-08-20 23:10:00
5:10 AM,82.4,66.2,58,29.71,3.7,WSW,13.8,-,N/A,,Scattered Clouds,250,2013-08-20 23:40:00
5:30 AM,82,68,54,29.73,2,WNW,13.8,,,,Haze,290,2013-08-21 00:00:00
5:40 AM,82.4,68.0,62,29.71,3.7,WNW,13.8,-,N/A,,Scattered Clouds,290,2013-08-21 00:10:00
6:10 AM,80.6,68.0,65,29.71,3.7,West,16.1,-,N/A,,Scattered Clouds,270,2013-08-21 00:40:00
6:40 AM,82.4,68.0,62,29.74,3.7,West,13.8,-,N/A,,Scattered Clouds,280,2013-08-21 01:10:00
7:10 AM,82.4,66.2,58,29.74,3.7,WNW,16.1,-,N/A,,Scattered Clouds,300,2013-08-21 01:40:00
7:40 AM,84.2,66.2,55,29.74,3.7,West,13.8,-,N/A,,Scattered Clouds,270,2013-08-21 02:10:00
8:10 AM,86.0,68.0,55,29.77,3.7,West,13.8,-,N/A,,Partly Cloudy,260,2013-08-21 02:40:00
8:30 AM,85,69,50,29.78,2,West,15.0,,,,Haze,270,2013-08-21 03:00:00
8:40 AM,86.0,68.0,55,29.80,3.7,West,15.0,26.5,N/A,,Partly Cloudy,270,2013-08-21 03:10:00
9:10 AM,87.8,68.0,52,29.80,3.7,West,13.8,25.3,N/A,,Partly Cloudy,280,2013-08-21 03:40:00
9:40 AM,89.6,68.0,49,29.77,3.7,West,18.4,29.9,N/A,,Partly Cloudy,280,2013-08-21 04:10:00
10:10 AM,91.4,68.0,46,29.77,3.7,West,19.6,31.1,N/A,,Partly Cloudy,270,2013-08-21 04:40:00
10:40 AM,93.2,68.0,44,29.77,3.7,West,16.1,27.6,N/A,,Partly Cloudy,280,2013-08-21 05:10:00
11:10 AM,95.0,68.0,41,29.77,3.7,West,17.3,28.8,N/A,,Partly Cloudy,280,2013-08-21 05:40:00
11:40 AM,95.0,66.2,39,29.74,3.7,WNW,13.8,25.3,N/A,,Partly Cloudy,290,2013-08-21 06:10:00
12:10 PM,96.8,68.0,39,29.74,4.3,West,16.1,27.6,N/A,,Scattered Clouds,270,2013-08-21 06:40:00
12:40 PM,98.6,68.0,37,29.71,5.0,West,18.4,29.9,N/A,,Scattered Clouds,280,2013-08-21 07:10:00
1:10 PM,98.6,68.0,37,29.71,5.0,West,21.9,33.4,N/A,,Scattered Clouds,280,2013-08-21 07:40:00
1:40 PM,98.6,68.0,37,29.68,5.0,West,19.6,31.1,N/A,,Scattered Clouds,280,2013-08-21 08:10:00
2:10 PM,98.6,68.0,37,29.68,5.0,West,13.8,25.3,N/A,,Scattered Clouds,280,2013-08-21 08:40:00
2:30 PM,97,65,25,29.67,2,West,13.8,,,,Haze,270,2013-08-21 09:00:00
2:40 PM,96.8,68.0,39,29.65,5.0,WNW,13.8,25.3,N/A,,Scattered Clouds,290,2013-08-21 09:10:00
3:10 PM,96.8,68.0,39,29.65,5.0,West,12.7,24.2,N/A,,Scattered Clouds,280,2013-08-21 09:40:00
3:40 PM,98.6,66.2,35,29.65,5.0,West,11.5,23.0,N/A,,Scattered Clouds,280,2013-08-21 10:10:00
4:10 PM,98.6,66.2,35,29.62,5.0,West,11.5,23.0,N/A,,Scattered Clouds,270,2013-08-21 10:40:00
4:40 PM,98.6,68.0,37,29.65,5.0,West,11.5,23.0,N/A,,Scattered Clouds,270,2013-08-21 11:10:00
5:10 PM,98.6,66.2,35,29.65,5.0,West,11.5,23.0,N/A,,Scattered Clouds,280,2013-08-21 11:40:00
5:30 PM,97,65,25,29.64,2,West,15.0,,,,Haze,270,2013-08-21 12:00:00
5:40 PM,96.8,68.0,39,29.65,5.0,West,10.4,21.9,N/A,,Scattered Clouds,280,2013-08-21 12:10:00
6:10 PM,96.8,68.0,39,29.65,5.0,West,9.2,20.7,N/A,,Scattered Clouds,280,2013-08-21 12:40:00
6:40 PM,96.8,68.0,39,29.68,4.3,West,9.2,20.7,N/A,,Scattered Clouds,270,2013-08-21 13:10:00
7:10 PM,93.2,66.2,41,29.68,3.7,West,11.5,23.0,N/A,,Scattered Clouds,270,2013-08-21 13:40:00
7:40 PM,91.4,66.2,43,29.71,3.7,West,9.2,20.7,N/A,,Scattered Clouds,270,2013-08-21 14:10:00
8:10 PM,89.6,68.0,49,29.71,3.7,West,12.7,-,N/A,,Scattered Clouds,280,2013-08-21 14:40:00
8:30 PM,89,66,37,29.72,2,West,11.5,,,,Haze,270,2013-08-21 15:00:00
8:40 PM,89.6,68.0,49,29.74,3.7,West,13.8,25.3,N/A,,Scattered Clouds,280,2013-08-21 15:10:00
9:10 PM,89.6,68.0,49,29.74,3.7,West,11.5,23.0,N/A,,Scattered Clouds,280,2013-08-21 15:40:00
9:40 PM,89.6,68.0,49,29.74,3.7,West,11.5,23.0,N/A,,Scattered Clouds,280,2013-08-21 16:10:00
10:10 PM,87.8,68.0,52,29.77,3.7,West,13.8,25.3,N/A,,Scattered Clouds,270,2013-08-21 16:40:00
10:40 PM,86.0,68.0,55,29.77,3.7,WNW,15.0,26.5,N/A,,Scattered Clouds,290,2013-08-21 17:10:00
11:10 PM,86.0,68.0,55,29.77,3.7,West,17.3,28.8,N/A,,Scattered Clouds,280,2013-08-21 17:40:00
11:30 PM,85,66,43,29.76,2,West,17.3,,,,Haze,270,2013-08-21 18:00:00
11:40 PM,84.2,68.0,58,29.77,3.7,West,16.1,27.6,N/A,,Scattered Clouds,280,2013-08-21 18:10:00